Location: Unspecified
(0.0000°N, 0.0000°E)
Time: 09:06:01
(UTC+00:00)

GALILEO 10 (206) - Visible Passes

Search period start: 27 November 2022 00:00
Search period end: 07 December 2022 00:00
Orbit: 23211 x 23233 km, 55.5° (Epoch: 26 November)

Date Brightness Start Highest point End Pass type
(mag) Time Alt. Az. Time Alt. Az. Time Alt. Az.
29 Nov ? 14:50:50 10° SW 16:27:07 19° W 03:01:01 10° SSE visible
01 Dec ? 01:27:12 10° NW 03:40:43 30° W 13:53:47 10° NNE visible
02 Dec ? 12:16:01 10° SW 14:54:10 42° W 00:47:03 10° SSE visible
03 Dec ? 23:08:13 10° NNW 02:06:50 55° W 11:36:48 10° NE visible
05 Dec ? 10:01:51 10° SSW 20:29:49 22° E 22:18:29 10° SE visible
